Trenton, NJ

8:15 AM EST on December 13, 2019 (GMT -0500)
Trenton Mercer

Weather History for KTTN - October, 2019

Change the Weather History Date:

Wednesday, October 23, 2019

  Actual Average Record
Temperature  
Mean Temperature 54 °F 52 °F  
Max Temperature 66 °F 63 °F 85 °F (1947)
Min Temperature 43 °F 42 °F 31 °F (1969)
Degree Days  
Heating Degree Days 10 13  
Month to date heating degree days 178 220  
Since 1 July heating degree days 196 285  
Cooling Degree Days 0 0  
Month to date cooling degree days 26 7  
Year to date cooling degree days 1163 962  
Growing Degree Days 4 (Base 50)    
Moisture  
Dew Point 46 °F    
Average Humidity 68    
Maximum Humidity 100    
Minimum Humidity 34    
Precipitation  
Precipitation 0.02 in 0.15 in 1.61 in (1893)
Month to date precipitation 3.20 3.15  
Year to date precipitation 41.86 38.40  
Sea Level Pressure  
Sea Level Pressure 29.95 in    
Wind  
Wind Speed 6 mph ()    
Max Wind Speed 20 mph    
Max Gust Speed 26 mph    
Visibility 9.7 miles    
Events Rain    
T = Trace of Precipitation, MM = Missing Value Source: Averaged Metar Reports

Daily Weather History Graph

Daily Weather History Graph

Search for Another Location

Airport or City:

Astronomy

Oct. 23, 2019 Rise Set
Actual Time 7:18 AM EDT 6:08 PM EDT
Civil Twilight 6:50 AM EDT 6:35 PM EDT
Nautical Twilight 6:18 AM EDT 7:07 PM EDT
Astronomical Twilight 5:47 AM EDT 7:39 PM EDT
Moon 1:33 AM EDT (10/23) 3:57 PM EDT (10/23)
Length of Visible Light 11h 45m
Length of Day
10h 49m
Waning Crescent, 27% of the Moon is Illuminated
Oct 23
Waning Crescent
Oct 27
New
Nov 4
First Quarter
Nov 12
Full
Nov 19
Last Quarter

Hourly Weather History & Observations

Time (EDT) Temp. Dew Point Humidity Pressure Visibility Wind Dir Wind Speed Gust Speed Precip Events Conditions
12:08 AM 62.1 °F 61.0 °F 96% 29.79 in 3.0 mi NW 8.1 mph - 0.01 in Rain Light Rain
12:53 AM 61.0 °F 60.1 °F 97% 29.78 in 10.0 mi West 3.5 mph - 0.02 in   Overcast
1:04 AM 61.0 °F 60.1 °F 97% 29.78 in 10.0 mi NW 5.8 mph - N/A   Overcast
1:53 AM 60.1 °F 57.9 °F 93% 29.78 in 10.0 mi WNW 5.8 mph - N/A   Scattered Clouds
2:53 AM 57.9 °F 57.0 °F 97% 29.78 in 10.0 mi WNW 4.6 mph - N/A   Mostly Cloudy
3:53 AM 57.0 °F 55.0 °F 93% 29.78 in 10.0 mi WNW 4.6 mph - N/A   Mostly Cloudy
4:53 AM 55.0 °F 54.0 °F 96% 29.81 in 10.0 mi NW 3.5 mph - N/A   Clear
5:53 AM 54.0 °F 52.0 °F 93% 29.83 in 10.0 mi NW 5.8 mph - N/A   Clear
6:53 AM 53.1 °F 51.1 °F 93% 29.87 in 10.0 mi WNW 5.8 mph - N/A   Clear
7:53 AM 53.1 °F 51.1 °F 93% 29.89 in 10.0 mi West 5.8 mph - N/A   Clear
8:53 AM 55.0 °F 51.1 °F 86% 29.94 in 10.0 mi West 8.1 mph - N/A   Clear
9:53 AM 57.9 °F 50.0 °F 75% 29.96 in 10.0 mi WNW 5.8 mph - N/A   Clear
10:53 AM 61.0 °F 44.1 °F 54% 29.96 in 10.0 mi WNW 8.1 mph - N/A   Clear
11:53 AM 62.1 °F 41.0 °F 46% 29.96 in 10.0 mi West 13.8 mph 20.7 mph N/A   Clear
12:53 PM 63.0 °F 37.0 °F 38% 29.98 in 10.0 mi WNW 12.7 mph 25.3 mph N/A   Partly Cloudy
1:53 PM 63.0 °F 37.0 °F 38% 29.96 in 10.0 mi WNW 12.7 mph 23.0 mph N/A   Clear
2:53 PM 64.0 °F 36.0 °F 35% 29.97 in 10.0 mi WNW 12.7 mph 21.9 mph N/A   Clear
3:53 PM 64.0 °F 36.0 °F 35% 29.99 in 10.0 mi WNW 11.5 mph 20.7 mph N/A   Clear
4:53 PM 63.0 °F 37.0 °F 38% 30.01 in 10.0 mi West 6.9 mph - N/A   Clear
5:53 PM 61.0 °F 36.0 °F 39% 30.03 in 10.0 mi West 8.1 mph - N/A   Clear
6:53 PM 57.9 °F 36.0 °F 44% 30.07 in 10.0 mi SW 4.6 mph - N/A   Clear
7:53 PM 55.9 °F 37.0 °F 49% 30.10 in 10.0 mi SW 4.6 mph - N/A   Clear
8:53 PM 51.1 °F 39.0 °F 63% 30.13 in 10.0 mi WNW 3.5 mph - N/A   Clear
9:53 PM 53.1 °F 37.9 °F 57% 30.15 in 10.0 mi West 4.6 mph - N/A   Clear
10:53 PM 50.0 °F 37.9 °F 63% 30.17 in 10.0 mi WSW 3.5 mph - N/A   Clear
11:53 PM 48.0 °F 37.9 °F 68% 30.18 in 10.0 mi Calm Calm - N/A   Clear